This is the latest recevied weather packets stored in our database for station/object WY7EM. If no packets are shown the sender has not sent any weather packets the latest 1 day(s).
| Time | Temp. | Humidity | Pressure | Rain* | Wind** | Luminosity | Snow |
|---|---|---|---|---|---|---|---|
| 1778040476 | 18.33° C | 24% | 1009 hPa | 0 mm | - | 0 W/m² | - |
| 1778040174 | 18.33° C | 24% | 1008.9 hPa | 0 mm | - | 0 W/m² | - |
| 1778039870 | 18.33° C | 24% | 1008.7 hPa | 0 mm | - | 0 W/m² | - |
| 1778039567 | 18.33° C | 24% | 1008.5 hPa | 0 mm | - | 0 W/m² | - |
| 1778039264 | 18.33° C | 24% | 1008.7 hPa | 0 mm | - | 0 W/m² | - |
| 1778038356 | 18.33° C | 24% | 1007.9 hPa | 0 mm | - | 0 W/m² | - |
| 1778038052 | 18.33° C | 23% | 1007.9 hPa | 0 mm | - | 0 W/m² | - |
| 1778037749 | 18.33° C | 23% | 1008 hPa | 0 mm | - | 0 W/m² | - |
| 1778037446 | 18.89° C | 23% | 1007.6 hPa | 0 mm | - | 0 W/m² | - |
| 1778037143 | 18.89° C | 23% | 1007.7 hPa | 0 mm | - | 0 W/m² | - |
| 1778036539 | 18.89° C | 23% | 1007.3 hPa | 0 mm | - | 0 W/m² | - |
| 1778035932 | 18.89° C | 23% | 1007.3 hPa | 0 mm | - | 0 W/m² | - |
| 1778035629 | 18.89° C | 23% | 1007.2 hPa | 0 mm | - | 0 W/m² | - |
| 1778035325 | 18.89° C | 23% | 1006.8 hPa | 0 mm | - | 0 W/m² | - |
| 1778034719 | 19.44° C | 23% | 1006.8 hPa | 0 mm | - | 0 W/m² | - |
| 1778034416 | 19.44° C | 23% | 1006.8 hPa | 0 mm | - | 1 W/m² | - |
| 1778033811 | 19.44° C | 22% | 1006.4 hPa | 0 mm | - | 2 W/m² | - |
| 1778033508 | 19.44° C | 22% | 1006.3 hPa | 0 mm | - | 3 W/m² | - |
| 1778033205 | 19.44° C | 22% | 1006.5 hPa | 0 mm | - | 6 W/m² | - |
| 1778032600 | 20° C | 21% | 1006.4 hPa | 0 mm | - | 12 W/m² | - |
| 1778032297 | 20° C | 20% | 1006.4 hPa | 0 mm | - | 16 W/m² | - |
| 1778031995 | 20° C | 19% | 1006.2 hPa | 0 mm | - | 19 W/m² | - |
| 1778031690 | 20° C | 19% | 1006.2 hPa | 0 mm | - | 23 W/m² | - |
| 1778031085 | 20.56° C | 18% | 1006 hPa | 0 mm | - | 32 W/m² | - |
| 1778030478 | 21.11° C | 18% | 1005.8 hPa | 0 mm | - | 38 W/m² | - |
* Rain latest hour (hover to see other rain measurements)
** Current wind speed in m/s (hover to see current wind gust speed)